Location: Proctor
(47.8934°N, 114.3048°W)
Time: 16:09:11
(UTC+00:00)

Courier 1B Rocket - Pass Details

Date: 14 June 2024
Orbit: 920 x 1201 km, 28.2° (Epoch: 16 July)

Event Time Altitude Azimuth Distance (km) Brightness Sun altitude
Rises 15:20:37 0° 237° (WSW) 4,027 7.8 34.1°
Reaches altitude 10° 15:24:36 10° 218° (SW) 3,098 7.4 34.8°
Maximum altitude 15:29:07 17° 182° (S) 2,643 7.5 35.5°
Drops below altitude 10° 15:33:41 10° 146° (SE) 3,127 8.3 36.3°
Sets 15:37:44 0° 127° (SE) 4,082 9.0 37.0°
